Вернуться в каталог

JITIANXING A-05 XING

АктивенНаукаSSO
NORAD 62733·PAYLOAD·🇨🇳 China
Это название спутника еще не подтверждено официальными источниками.

Запущен Jan 20, 2025 с Jiuquan Satellite Launch Center

Loading…

Ближайшие Пролёты (ближайшие 24 часа)

TLE

СвежийSource: Space-Track

Эпоха: Sep 14, 2026, 22:22 UTC

1 62733U 25013E   26257.93203153  .00002843  00000-0  17136-3 0  9998
2 62733  97.6649  67.4332 0009894  73.2432 286.9883 15.11561759 90778

Отслеживайте JITIANXING A-05 XING в реальном времени с AllMySat

Download on the App Store